Location: Unspecified
(0.0000°N, 0.0000°E)
Time: 01:30:32
(UTC+00:00)

Courier 1B - Pass Details

Date: 20 November 2019
Orbit: 963 x 1209 km, 28.3° (Epoch: 11 December)

Event Time Altitude Azimuth Distance (km) Brightness Sun altitude
Rises 11:00:00 0° 324° (NW) 3,626 10.3 67.4°
Reaches altitude 10° 11:03:23 10° 341° (NNW) 2,679 9.7 67.8°
Maximum altitude 11:07:58 20° 27° (NNE) 2,062 9.3 68.3°
Drops below altitude 10° 11:12:36 10° 72° (ENE) 2,725 10.0 68.7°
Sets 11:16:04 0° 88° (E) 3,708 10.6 69.0°
